An Run Da 2 — BHNX — position and weather

sailwx.info

Track history (hours):
 
Tides and Currents Weather Stations Pressure Air Temp Water Temp Dewpoint Dewpoint Depression Visibility Wind Speed Wind Dir Waves Ship Positions

An Run Da 2

Last reported at 2014-Jul-29 13:17 UTC. Time now 2014-Aug-01 05:54 UTC.
Position N 38°27' E 118°15'.

Length 147 m; draft 5.1 m.

Type: Cargo ship. MMSI: 413360230.

Date/timePositionNaut miles runAvg speedWind from/ knotsBaromVisibWave heightAir tempDewpointWater temp
2014-Jul-29 13:17N 38°27' E 118°15'0 0.0
2014-Jul-29 12:32N 38°27' E 118°15'0 0.0
2014-Jul-29 11:06N 38°27' E 118°15'0 0.0
2014-Jul-29 10:24N 38°27' E 118°15'0 0.0
2014-Jul-28 20:27N 38°27' E 118°15'0 0.0
2014-Jul-28 19:33N 38°27' E 118°15'0 0.0
2014-Jul-28 15:06N 38°27' E 118°15'0 0.0
2014-Jul-28 12:31N 38°27' E 118°15'0 0.0
2014-Jul-27 22:08N 38°27' E 118°15'0 0.0
2014-Jul-27 21:30N 38°27' E 118°15'0 0.0
2014-Jul-27 20:19N 38°27' E 118°15'0 0.0
2014-Jul-27 14:27N 38°27' E 118°15'0 0.1
2014-Jul-27 13:33N 38°27' E 118°15'0 0.0
2014-Jul-27 10:09N 38°27' E 118°15'29 2.5
2014-Jul-26 22:29N 38°32' E 118°51'1010.4
2014-Jul-26 21:33N 38°30' E 119°03'1111.0
2014-Jul-26 20:33N 38°27' E 119°17'7211.9
2014-Jul-26 14:29N 38°02' E 120°42'3511.1
2014-Jul-26 11:19N 37°53' E 121°26'810.7
2014-Jul-26 10:32N 37°51' E 121°36'1110.8
2014-Jul-26 09:33N 37°48' E 121°49'1111.1
2014-Jul-26 08:33N 37°45' E 122°02'1111.3
2014-Jul-26 07:33N 37°43' E 122°16'1110.8
2014-Jul-26 06:33N 37°40' E 122°30'1110.1
2014-Jul-26 05:29N 37°36' E 122°42'42 8.3
2014-Jul-26 00:22N 36°54' E 122°52'8 9.6
2014-Jul-25 23:30N 36°46' E 122°51'10 9.9
2014-Jul-25 22:28N 36°36' E 122°48'337 8.7
2014-Jul-24 07:33N 30°59' E 122°32'1211.9
2014-Jul-24 06:34N 31°02' E 122°19'2911.8
2014-Jul-24 04:05N 31°14' E 121°48'510.1
2014-Jul-24 03:34N 31°18' E 121°44'9 9.4
2014-Jul-24 02:33N 31°23' E 121°35'3 3.5
2014-Jul-24 01:33N 31°21' E 121°32'6 5.7
2014-Jul-24 00:33N 31°15' E 121°32'5 5.3
2014-Jul-23 23:33N 31°11' E 121°28'6 1.1
2014-Jul-23 18:12N 31°05' E 121°28'0 0.0
2014-Jul-23 15:31N 31°05' E 121°28'0 0.0
2014-Jul-23 13:07N 31°05' E 121°28'0 0.0
2014-Jul-23 11:31N 31°05' E 121°28'0 0.0
2014-Jul-23 10:25N 31°05' E 121°28'0 0.0
2014-Jul-23 01:10N 31°05' E 121°28'0 0.0
2014-Jul-23 00:04N 31°05' E 121°28'0 0.0
2014-Jul-22 18:30N 31°06' E 121°28'2 1.9
2014-Jul-22 17:33N 31°07' E 121°28'4 4.3
2014-Jul-22 16:32N 31°12' E 121°29'5 5.2
2014-Jul-22 15:33N 31°16' E 121°33'6 5.6
2014-Jul-22 14:33N 31°21' E 121°31'3 3.1
2014-Jul-22 13:33N 31°24' E 121°33'6 6.3
2014-Jul-22 12:33N 31°21' E 121°40'8 8.4
2014-Jul-22 11:33N 31°17' E 121°49'333 6.7
2014-Jul-20 10:16N 36°47' E 122°45'811.0
2014-Jul-20 09:33N 36°54' E 122°45'1111.0
2014-Jul-20 08:33N 37°05' E 122°46'28 9.3
2014-Jul-20 05:31N 37°33' E 122°38'9 9.4
2014-Jul-20 04:33N 37°36' E 122°27'10 9.6
2014-Jul-20 03:33N 37°39' E 122°16'10 9.8
2014-Jul-20 02:33N 37°42' E 122°04'1010.1
2014-Jul-20 01:33N 37°45' E 121°52'1010.2
2014-Jul-20 00:33N 37°48' E 121°40'1010.0
2014-Jul-19 23:33N 37°51' E 121°28'  
Track history (hours):
 
Tides and Currents Weather Stations Pressure Air Temp Water Temp Dewpoint Dewpoint Depression Visibility Wind Speed Wind Dir Waves Ship Positions

An Run Da 2

Last reported at 2014-Jul-29 13:17 UTC. Time now 2014-Aug-01 05:54 UTC.
Position N 38°27' E 118°15'.

Length 147 m; draft 5.1 m.

Type: Cargo ship. MMSI: 413360230.

Date/timePositionNaut miles runAvg speedWind from/ knotsBaromVisibWave heightAir tempDewpointWater temp
2014-Jul-29 13:17N 38°27' E 118°15'0 0.0
2014-Jul-29 12:32N 38°27' E 118°15'0 0.0
2014-Jul-29 11:06N 38°27' E 118°15'0 0.0
2014-Jul-29 10:24N 38°27' E 118°15'0 0.0
2014-Jul-28 20:27N 38°27' E 118°15'0 0.0
2014-Jul-28 19:33N 38°27' E 118°15'0 0.0
2014-Jul-28 15:06N 38°27' E 118°15'0 0.0
2014-Jul-28 12:31N 38°27' E 118°15'0 0.0
2014-Jul-27 22:08N 38°27' E 118°15'0 0.0
2014-Jul-27 21:30N 38°27' E 118°15'0 0.0
2014-Jul-27 20:19N 38°27' E 118°15'0 0.0
2014-Jul-27 14:27N 38°27' E 118°15'0 0.1
2014-Jul-27 13:33N 38°27' E 118°15'0 0.0
2014-Jul-27 10:09N 38°27' E 118°15'29 2.5
2014-Jul-26 22:29N 38°32' E 118°51'1010.4
2014-Jul-26 21:33N 38°30' E 119°03'1111.0
2014-Jul-26 20:33N 38°27' E 119°17'7211.9
2014-Jul-26 14:29N 38°02' E 120°42'3511.1
2014-Jul-26 11:19N 37°53' E 121°26'810.7
2014-Jul-26 10:32N 37°51' E 121°36'1110.8
2014-Jul-26 09:33N 37°48' E 121°49'1111.1
2014-Jul-26 08:33N 37°45' E 122°02'1111.3
2014-Jul-26 07:33N 37°43' E 122°16'1110.8
2014-Jul-26 06:33N 37°40' E 122°30'1110.1
2014-Jul-26 05:29N 37°36' E 122°42'42 8.3
2014-Jul-26 00:22N 36°54' E 122°52'8 9.6
2014-Jul-25 23:30N 36°46' E 122°51'10 9.9
2014-Jul-25 22:28N 36°36' E 122°48'337 8.7
2014-Jul-24 07:33N 30°59' E 122°32'1211.9
2014-Jul-24 06:34N 31°02' E 122°19'2911.8
2014-Jul-24 04:05N 31°14' E 121°48'510.1
2014-Jul-24 03:34N 31°18' E 121°44'9 9.4
2014-Jul-24 02:33N 31°23' E 121°35'3 3.5
2014-Jul-24 01:33N 31°21' E 121°32'6 5.7
2014-Jul-24 00:33N 31°15' E 121°32'5 5.3
2014-Jul-23 23:33N 31°11' E 121°28'6 1.1
2014-Jul-23 18:12N 31°05' E 121°28'0 0.0
2014-Jul-23 15:31N 31°05' E 121°28'0 0.0
2014-Jul-23 13:07N 31°05' E 121°28'0 0.0
2014-Jul-23 11:31N 31°05' E 121°28'0 0.0
2014-Jul-23 10:25N 31°05' E 121°28'0 0.0
2014-Jul-23 01:10N 31°05' E 121°28'0 0.0
2014-Jul-23 00:04N 31°05' E 121°28'0 0.0
2014-Jul-22 18:30N 31°06' E 121°28'2 1.9
2014-Jul-22 17:33N 31°07' E 121°28'4 4.3
2014-Jul-22 16:32N 31°12' E 121°29'5 5.2
2014-Jul-22 15:33N 31°16' E 121°33'6 5.6
2014-Jul-22 14:33N 31°21' E 121°31'3 3.1
2014-Jul-22 13:33N 31°24' E 121°33'6 6.3
2014-Jul-22 12:33N 31°21' E 121°40'8 8.4
2014-Jul-22 11:33N 31°17' E 121°49'333 6.7
2014-Jul-20 10:16N 36°47' E 122°45'811.0
2014-Jul-20 09:33N 36°54' E 122°45'1111.0
2014-Jul-20 08:33N 37°05' E 122°46'28 9.3
2014-Jul-20 05:31N 37°33' E 122°38'9 9.4
2014-Jul-20 04:33N 37°36' E 122°27'10 9.6
2014-Jul-20 03:33N 37°39' E 122°16'10 9.8
2014-Jul-20 02:33N 37°42' E 122°04'1010.1
2014-Jul-20 01:33N 37°45' E 121°52'1010.2
2014-Jul-20 00:33N 37°48' E 121°40'1010.0
2014-Jul-19 23:33N 37°51' E 121°28'  

Dump ship's entire track history